[[{"header":{"parameterUnit":"m.s-1","parameterCategory":1,"la1":30.2991,"la2":30.254,"lo1":-89.0895,"lo2":-89.0444,"dy":0.0017,"dx":0.0017,"nx":28,"ny":28,"refTime":"2023-10-16T09:00:00:Z","depth":0,"parameterNumber":2,"parameterNumberName":"U-component_of_WINDS"},"data":[0,0,0,0,0,0,0,0,0,0,0,0,0,0,0,0,0,0,0,0,0,0,0,0,0,0,0,0,0,0,0,0,0,0,0,0,0,0,0,0,0,0,0,0,0,0,0,0,0,0,0,0,0,0,0,0,0,0,1.2662,1.2662,0,1.2635,1.2634,1.2634,1.2547,1.2545,1.2543,1.2541,1.2515,1.2517,1.2518,0,0,0,0,0,0,0,0,0,0,0,0,0,1.264,1.2641,1.2662,1.2662,1.2661,1.2635,1.2634,1.2634,1.2547,1.2545,1.2542,1.254,1.2515,1.2516,1.2518,0,0,0,0,0,0,0,0,0,0,0,0,0,1.2635,1.2641,1.2662,1.2615,1.261,1.2635,1.2634,1.2634,1.2548,1.2545,1.2542,1.2539,1.2515,1.2516,1.2518,1.2587,0,0,1.2523,1.2524,0,0,0,0,0,0,0,0,1.2635,1.2636,1.2622,1.2618,1.2613,1.2591,1.2617,1.2618,1.2548,1.2571,1.2541,1.2537,1.2543,1.2542,1.2544,1.2586,1.2585,1.2523,1.2524,1.2525,1.2526,0,0,0,0,0,0,0,1.2636,1.2636,1.2651,1.2622,1.2616,1.2595,1.2591,1.2617,1.2574,1.2569,1.2563,1.2561,1.254,1.2542,1.2542,1.2584,1.2523,1.2525,1.2526,1.2527,1.2681,1.2684,0,0,0,0,0,0,1.2643,1.2637,1.2652,1.265,1.2617,1.2598,1.2593,1.2601,1.2573,1.2566,1.2563,1.2557,1.2541,1.2541,1.2541,1.2619,1.2525,1.2527,1.2528,1.2678,1.2681,1.2685,0,0,0,0,0,0,1.2642,1.2645,1.2653,1.2642,1.2641,1.2601,1.2611,1.2602,1.2604,1.2569,1.2561,1.2573,1.2538,1.2539,1.2576,1.2617,1.2527,1.2529,1.2674,1.2679,1.2683,1.2776,0,0,0,0,0,0,1.2642,1.2645,1.2671,1.2643,1.2642,1.2688,1.2613,1.2604,1.2607,1.2598,1.2576,1.257,1.2536,1.2574,1.2578,1.2618,1.253,1.267,1.2676,1.2682,1.2769,1.2783,1.2796,0,0,0,0,0,1.2642,1.2699,1.2672,1.2675,1.2673,1.2691,1.269,1.265,1.2611,1.2636,1.2613,1.257,1.2612,1.2578,1.2582,1.2623,1.2667,1.2675,1.2681,1.2763,1.2781,1.2795,0,0,0,0,0,0,1.2733,1.2694,1.2665,1.2715,1.2706,1.2676,1.2706,1.267,1.2673,1.2665,1.2615,1.2611,1.2655,1.2643,1.2606,1.2688,1.2633,1.2641,1.2694,1.271,1.2723,1.2724,1.2532,0,0,0,0,0,1.2759,1.2776,1.2741,1.2789,1.2786,1.2747,1.2753,1.2723,1.2713,1.2709,1.2689,1.2681,1.2692,1.2701,1.2709,1.2768,1.2761,1.2798,1.2811,1.2822,1.2829,1.2858,1.2873,1.2707,1.2707,1.2707,0,0,1.2813,1.2794,1.2807,1.2806,1.2796,1.2815,1.2745,1.2768,1.2781,1.2713,1.2745,1.2731,1.2719,1.2767,1.2787,1.2758,1.2873,1.2831,1.284,1.2841,1.2866,1.2882,1.2896,1.2712,1.2711,1.2711,0,0,1.292,1.2908,1.2945,1.2936,1.2921,1.2895,1.2905,1.2879,1.2866,1.2899,1.2847,1.2863,1.2884,1.2877,1.2876,1.298,1.294,1.2985,1.3053,1.3081,1.3094,1.3106,1.3142,1.3155,1.2992,1.2992,1.2992,0,1.2989,1.3014,1.2969,1.2994,1.2995,1.2934,1.2971,1.2965,1.2955,1.2957,1.2925,1.2948,1.2936,1.2981,1.3006,1.3008,1.3016,1.2986,1.3096,1.3107,1.3117,1.315,1.3164,1.2998,1.2997,1.2996,1.2996,0,1.3098,1.3117,1.3149,1.3138,1.3143,1.3175,1.3135,1.3145,1.3114,1.3092,1.3125,1.3109,1.3112,1.312,1.3091,1.3161,1.3143,1.3105,1.3048,1.3139,1.3169,1.3182,1.3005,1.3003,1.3002,1.3,0,0,1.3262,1.3226,1.3238,1.3232,1.3212,1.3225,1.3254,1.3256,1.3265,1.3261,1.3283,1.3302,1.3265,1.3265,1.3234,1.326,1.3341,1.3217,1.3216,1.324,1.3416,1.3444,1.3459,1.3315,1.3318,1.332,1.3416,0,1.3362,1.3407,1.3368,1.3421,1.3437,1.3379,1.3404,1.3394,1.3374,1.3385,1.3362,1.3376,1.3328,1.3326,1.3349,1.3327,1.3376,1.3319,1.3335,1.3336,1.3339,1.3475,1.3505,1.3597,1.3428,1.343,1.3431,0,1.3484,1.3483,1.3538,1.3513,1.3518,1.3541,1.3539,1.355,1.3538,1.3522,1.3521,1.3483,1.351,1.3455,1.3491,1.3453,1.3458,1.3448,1.345,1.3449,1.3388,1.3477,1.3626,1.3639,1.345,1.3449,1.3447,0,1.3596,1.3609,1.3642,1.364,1.3611,1.3629,1.3618,1.3603,1.3606,1.3606,1.3607,1.361,1.3612,1.3615,1.3579,1.3543,1.3619,1.3561,1.3605,1.3606,1.3623,1.3622,1.3773,1.3629,1.3629,1.3628,1.3628,0,1.3711,1.3746,1.3692,1.3713,1.3751,1.3705,1.3744,1.3728,1.3715,1.3731,1.3682,1.3699,1.3651,1.3663,1.3636,1.3669,1.367,1.3657,1.3649,1.3661,1.3662,1.3662,1.3654,1.3632,1.3631,1.363,1.363,0,1.3841,1.3807,1.3839,1.381,1.3803,1.3832,1.3807,1.3825,1.3801,1.3823,1.3826,1.3789,1.38,1.3765,1.3772,1.3753,1.3801,1.3783,1.3805,1.3799,1.3844,1.384,1.3999,1.4017,1.3863,1.3864,1.3865,0,1.3916,1.3942,1.3914,1.3921,1.3913,1.3925,1.3928,1.3885,1.389,1.3878,1.3898,1.3905,1.3908,1.3929,1.3903,1.3908,1.3889,1.3945,1.3889,1.39,1.3888,1.3886,1.3888,1.3956,1.3958,1.3959,1.396,0,1.4052,1.4033,1.4039,1.4039,1.4044,1.4042,1.4037,1.4046,1.3999,1.4008,1.4018,1.4021,1.4026,1.4034,1.4033,1.4022,1.3984,1.3978,1.3988,1.4,1.401,1.4004,1.3834,1.3974,1.3973,1.3972,1.3971,1.3971,1.4156,1.4175,1.4159,1.4167,1.4158,1.4154,1.4169,1.4147,1.4155,1.4155,1.413,1.4145,1.4132,1.4126,1.4119,1.4131,1.4105,1.412,1.4124,1.4128,1.4135,1.401,1.4131,1.413,1.413,1.413,1.4129,0,1.4288,1.4274,1.4282,1.4275,1.4282,1.4245,1.4237,1.4244,1.4258,1.4249,1.4253,1.4265,1.4272,1.4247,1.425,1.4264,1.4247,1.4266,1.4264,1.4262,1.4158,1.4149,1.428,1.428,1.428,1.428,1.428,1.428,1.4357,1.4388,1.4367,1.4393,1.4379,1.4393,1.4391,1.4388,1.4379,1.4394,1.44,1.4383,1.4367,1.4369,1.4374,1.4366,1.4369,1.4395,1.4381,1.4284,1.427,1.4256,1.4246,1.4396,1.4396,1.4483,1.4484,1.4485]},{"header":{"parameterUnit":"m.s-1","parameterCategory":1,"la1":30.2991,"la2":30.254,"lo1":-89.0895,"lo2":-89.0444,"dy":0.0017,"dx":0.0017,"nx":28,"ny":28,"refTime":"2023-10-16T09:00:00:Z","depth":0,"parameterNumber":3,"parameterNumberName":"V-component_of_WINDS"},"data":[0,0,0,0,0,0,0,0,0,0,0,0,0,0,0,0,0,0,0,0,0,0,0,0,0,0,0,0,0,0,0,0,0,0,0,0,0,0,0,0,0,0,0,0,0,0,0,0,0,0,0,0,0,0,0,0,0,0,1.2063,1.2063,0,1.2032,1.2031,1.2031,1.199,1.1989,1.1989,1.1988,1.1955,1.1955,1.1954,0,0,0,0,0,0,0,0,0,0,0,0,0,1.2087,1.2087,1.2064,1.2063,1.2063,1.2032,1.2031,1.2031,1.199,1.1989,1.1989,1.1988,1.1955,1.1955,1.1954,0,0,0,0,0,0,0,0,0,0,0,0,0,1.2068,1.2087,1.2064,1.2039,1.2036,1.2032,1.2031,1.2031,1.199,1.1989,1.1988,1.1988,1.1955,1.1955,1.1954,1.1972,0,0,1.1953,1.1953,0,0,0,0,0,0,0,0,1.2069,1.2067,1.2043,1.204,1.2038,1.2014,1.2027,1.2011,1.1991,1.2008,1.1988,1.1987,1.1975,1.1973,1.1969,1.197,1.1969,1.1953,1.1953,1.1953,1.1953,0,0,0,0,0,0,0,1.2071,1.2069,1.2051,1.2042,1.2039,1.2028,1.2025,1.2024,1.1997,1.2006,1.2003,1.2,1.1974,1.197,1.1968,1.1968,1.1953,1.1953,1.1953,1.1952,1.1979,1.198,0,0,0,0,0,0,1.2076,1.207,1.2052,1.205,1.2051,1.2029,1.2025,1.2022,1.1997,1.1993,1.2001,1.1998,1.1971,1.1969,1.1967,1.1984,1.1953,1.1952,1.1952,1.1979,1.198,1.1981,0,0,0,0,0,0,1.2077,1.2075,1.2053,1.2059,1.2056,1.203,1.2027,1.2022,1.2019,1.1993,1.1988,1.2002,1.197,1.1968,1.197,1.1983,1.1952,1.1952,1.1977,1.1979,1.198,1.202,0,0,0,0,0,0,1.2077,1.2075,1.2082,1.206,1.2055,1.2058,1.2028,1.2022,1.2018,1.2014,1.1993,1.1989,1.1969,1.1971,1.197,1.1982,1.1952,1.1976,1.1978,1.198,1.2018,1.2023,1.2027,0,0,0,0,0,1.2078,1.2095,1.2083,1.2081,1.2064,1.2059,1.2056,1.2034,1.2019,1.2025,1.2009,1.1989,1.1982,1.1972,1.197,1.1982,1.1975,1.1978,1.198,1.2015,1.2022,1.2027,0,0,0,0,0,0,1.212,1.2092,1.2078,1.2087,1.2076,1.2052,1.2059,1.2042,1.2034,1.203,1.2003,1.1998,1.2004,1.1993,1.1983,1.1996,1.1975,1.1977,1.2003,1.2009,1.2014,1.2016,1.1951,0,0,0,0,0,1.213,1.2129,1.2104,1.2115,1.211,1.2086,1.2083,1.2066,1.2053,1.2048,1.2032,1.2019,1.2014,1.2011,1.2004,1.2016,1.201,1.2023,1.2027,1.2031,1.2033,1.2037,1.2042,1.1988,1.1988,1.1988,0,0,1.2151,1.2135,1.2137,1.2123,1.2112,1.2111,1.2082,1.2082,1.208,1.2048,1.2049,1.2037,1.2021,1.2028,1.203,1.2019,1.2047,1.2034,1.2038,1.2037,1.2039,1.2044,1.2049,1.1989,1.1989,1.1989,0,0,1.2189,1.2177,1.2184,1.2174,1.2157,1.2141,1.2143,1.2121,1.2112,1.2113,1.2088,1.2085,1.2077,1.2066,1.2059,1.2091,1.2072,1.209,1.2115,1.2118,1.2122,1.2126,1.2136,1.214,1.2092,1.2092,1.2092,0,1.2217,1.2215,1.219,1.2192,1.2186,1.2156,1.2162,1.2153,1.2136,1.2132,1.212,1.2107,1.2094,1.2097,1.2105,1.2101,1.2101,1.2092,1.2124,1.2127,1.213,1.2139,1.2143,1.2094,1.2094,1.2093,1.2093,0,1.2249,1.2248,1.2256,1.2239,1.2234,1.2238,1.2214,1.2211,1.2195,1.2179,1.218,1.2163,1.2152,1.2152,1.2136,1.2152,1.2145,1.2129,1.2107,1.2138,1.2146,1.2149,1.2097,1.2096,1.2096,1.2095,0,0,1.2313,1.2282,1.2285,1.2276,1.2256,1.2254,1.2256,1.2245,1.2243,1.2231,1.2231,1.2224,1.2208,1.2201,1.2183,1.2186,1.2211,1.2169,1.2168,1.2176,1.2225,1.2237,1.2242,1.2198,1.2199,1.2199,1.2226,0,1.2346,1.2348,1.2325,1.2333,1.2331,1.2302,1.2303,1.229,1.2275,1.227,1.2253,1.2248,1.2228,1.2223,1.2225,1.2208,1.222,1.2205,1.2197,1.2197,1.2201,1.2246,1.2259,1.2286,1.2229,1.223,1.223,0,1.2385,1.2375,1.2383,1.236,1.2358,1.236,1.2347,1.2343,1.2327,1.2316,1.2307,1.2287,1.2286,1.2265,1.2263,1.2253,1.2248,1.2239,1.2239,1.2237,1.2215,1.2244,1.2294,1.2297,1.2235,1.2235,1.2234,0,1.2429,1.2418,1.242,1.2414,1.2388,1.239,1.2379,1.2362,1.2356,1.2345,1.2341,1.2329,1.2323,1.2314,1.2291,1.2279,1.229,1.2269,1.228,1.2281,1.2284,1.2284,1.2332,1.2282,1.2282,1.2282,1.2282,0,1.2468,1.2473,1.244,1.2441,1.2446,1.242,1.2425,1.2411,1.2395,1.2393,1.2367,1.2365,1.2335,1.2329,1.2311,1.231,1.2308,1.2298,1.2293,1.23,1.2301,1.2296,1.2293,1.2283,1.2282,1.2282,1.2282,0,1.2518,1.2496,1.2496,1.2471,1.2465,1.247,1.2448,1.2447,1.243,1.2427,1.2425,1.2399,1.239,1.2366,1.2352,1.2339,1.2344,1.2335,1.2349,1.2346,1.2358,1.2357,1.2404,1.2408,1.2357,1.2357,1.2358,0,1.2544,1.2547,1.2522,1.2519,1.2509,1.2504,1.2498,1.2472,1.2466,1.2447,1.2449,1.2438,1.2429,1.2416,1.2395,1.2383,1.2373,1.239,1.2371,1.2377,1.2372,1.2372,1.2371,1.2395,1.2395,1.2396,1.2396,0,1.2592,1.258,1.2573,1.2561,1.2555,1.2545,1.2532,1.2531,1.2501,1.2496,1.2487,1.248,1.2464,1.2454,1.2438,1.2426,1.2406,1.2402,1.2404,1.2411,1.2419,1.2413,1.236,1.2401,1.2401,1.2401,1.24,1.24,1.263,1.2631,1.2613,1.2605,1.2593,1.2582,1.2581,1.2563,1.2556,1.2541,1.2526,1.2518,1.25,1.2477,1.2466,1.2459,1.2448,1.2451,1.2452,1.2453,1.2455,1.2421,1.2456,1.2456,1.2456,1.2455,1.2455,0,1.2676,1.2662,1.2656,1.2639,1.2633,1.2615,1.26,1.2595,1.2589,1.2574,1.2565,1.2554,1.2543,1.252,1.2507,1.2505,1.2495,1.2502,1.2502,1.2499,1.2466,1.2465,1.251,1.251,1.251,1.251,1.251,1.251,1.2699,1.2699,1.2685,1.2679,1.2665,1.2658,1.2651,1.264,1.2628,1.2617,1.2607,1.2593,1.2574,1.2559,1.2548,1.2541,1.2537,1.2547,1.2537,1.2507,1.2502,1.2497,1.2496,1.2546,1.2546,1.257,1.257,1.2571]}]]